Weather History for KIRK - February, 2014

Change the Weather History Date:

Monday, February 24, 2014

  Actual Average Record
Temperature  
Mean Temperature 23 °F 32 °F  
Max Temperature 27 °F 42 °F 77 °F (1930)
Min Temperature 18 °F 23 °F -1 °F (1967)
Degree Days  
Heating Degree Days 42 33  
Month to date heating degree days 1101 860  
Since 1 July heating degree days 4787 4407  
Cooling Degree Days 0 0  
Month to date cooling degree days 0 0  
Year to date cooling degree days 0 0  
Moisture  
Dew Point 13 °F    
Average Humidity 62    
Maximum Humidity 73    
Minimum Humidity 50    
Precipitation  
Precipitation 0.00 in 0.06 in 1.84 in (2007)
Month to date precipitation 2.69 1.31  
Year to date precipitation 3.55 2.58  
Sea Level Pressure  
Sea Level Pressure 30.36 in    
Wind  
Wind Speed 5 mph (NE)    
Max Wind Speed 12 mph    
Max Gust Speed 14 mph    
Visibility 10 miles    
Events      
T = Trace of Precipitation, MM = Missing Value Source: NWS Daily Summary

Daily Weather History Graph

Daily Weather History Graph

Search for Another Location

Airport or City:

Trip Planner

Search our weather history database for the weather conditions in past years. The results will help you decide how hot, cold, wet, or windy it might be!

Date:

Astronomy

Feb. 24, 2014 Rise Set
Actual Time 6:50 AM CST 5:56 PM CST
Civil Twilight 6:23 AM CST 6:23 PM CST
Nautical Twilight 5:52 AM CST 6:55 PM CST
Astronomical Twilight 5:20 AM CST 7:26 PM CST
Moon 2:50 AM CST (2/24) 12:57 PM CST (2/24)
Length of Visible Light 12h 00m
Length of Day
11h 05m
Waning Crescent, 28% of the Moon is Illuminated
Feb 24
Waning Crescent
Mar 1
New
Mar 8
First Quarter
Mar 16
Full
Mar 23
Last Quarter

Hourly Weather History & Observations

Time (CST) Temp. Windchill Dew Point Humidity Pressure Visibility Wind Dir Wind Speed Gust Speed Precip Events Conditions
12:55 AM 19.9 °F 14.9 °F 10.0 °F 65% 30.39 in 10.0 mi NW 3.5 mph - N/A   Clear
1:55 AM 19.0 °F 13.9 °F 12.0 °F 74% 30.39 in 10.0 mi WSW 3.5 mph - N/A   Clear
2:55 AM 19.9 °F - 12.9 °F 74% 30.37 in 10.0 mi Calm Calm - N/A   Clear
3:55 AM 21.0 °F 14.6 °F 12.0 °F 68% 30.38 in 10.0 mi NW 4.6 mph - N/A   Clear
4:55 AM 21.0 °F 16.2 °F 12.9 °F 71% 30.40 in 10.0 mi West 3.5 mph - N/A   Scattered Clouds
5:55 AM 21.9 °F - 14.0 °F 72% 30.40 in 10.0 mi Calm Calm - N/A   Overcast
6:55 AM 21.9 °F - 14.0 °F 72% 30.39 in 10.0 mi Calm Calm - N/A   Overcast
7:55 AM 23.0 °F 13.9 °F 12.9 °F 65% 30.40 in 10.0 mi North 8.1 mph - N/A   Overcast
8:55 AM 24.1 °F 13.7 °F 12.9 °F 62% 30.42 in 10.0 mi North 10.4 mph - N/A   Overcast
9:55 AM 25.0 °F 19.3 °F 12.0 °F 58% 30.43 in 10.0 mi North 4.6 mph - N/A   Overcast
10:55 AM 25.0 °F 20.7 °F 12.0 °F 58% 30.43 in 10.0 mi Variable 3.5 mph - N/A   Overcast
11:55 AM 27.0 °F 23.0 °F 10.9 °F 51% 30.42 in 10.0 mi North 3.5 mph - N/A   Overcast
12:55 PM 27.0 °F 21.6 °F 12.0 °F 53% 30.38 in 10.0 mi East 4.6 mph - N/A   Overcast
1:55 PM 27.0 °F 21.6 °F 10.0 °F 49% 30.36 in 10.0 mi East 4.6 mph - N/A   Overcast
2:55 PM 27.0 °F 20.5 °F 10.0 °F 49% 30.33 in 10.0 mi ENE 5.8 mph - N/A   Overcast
3:55 PM 27.0 °F 20.5 °F 12.0 °F 53% 30.32 in 10.0 mi East 5.8 mph - N/A   Overcast
4:55 PM 26.1 °F 17.6 °F 12.0 °F 55% 30.29 in 10.0 mi East 8.1 mph - N/A   Overcast
5:55 PM 25.0 °F 16.3 °F 14.0 °F 63% 30.30 in 10.0 mi East 8.1 mph - N/A   Overcast
6:55 PM 25.0 °F 18.1 °F 12.9 °F 60% 30.31 in 10.0 mi East 5.8 mph - N/A   Overcast
7:55 PM 25.0 °F 18.1 °F 12.0 °F 58% 30.31 in 10.0 mi ENE 5.8 mph - N/A   Overcast
8:55 PM 25.0 °F 15.5 °F 12.9 °F 60% 30.30 in 10.0 mi NE 9.2 mph - N/A   Overcast
9:55 PM 24.1 °F 16.0 °F 12.9 °F 62% 30.31 in 10.0 mi ENE 6.9 mph - N/A   Overcast
10:55 PM 24.1 °F 16.0 °F 15.1 °F 69% 30.31 in 10.0 mi NNE 6.9 mph - N/A   Overcast
11:55 PM 23.0 °F 13.1 °F 16.0 °F 74% 30.33 in 10.0 mi NNE 9.2 mph - N/A   Overcast